Regional Weather Roundup
Issued by NWS

Home | Current Version | Previous Version | Text Only | Print | Product List | Glossary On
Versions: 1 2 3 4 5 6 7 8 9 10 11 12 13 14 15 16 17 18 19 20 21 22 23 24 25 26 27 28 29 30 31 32 33 34 35 36 37 38 39 40 41 42 43 44 45 46 47 48 49 50
000
ASCA44 KEWX 221420
RWRMX

LATIN AMERICA AND CARIBBEAN REGIONAL WEATHER ROUNDUP
NATIONAL WEATHER SERVICE AUSTIN/SAN ANTONIO TX
900 AM CDT MON SEP 22 2014

NOTE: "FAIR" INDICATED FEW OR NO CLOUDS BELOW 12,000 FEET WITH NO
SIGNIFICANT WEATHER AND/OR OBSTRUCTIONS TO VISIBILITY.

BAJA CALIFORNIA

CITY           SKY/WX    TMP DP  RH WIND       PRES   REMARKS
LA PAZ         MOSUNNY   79  75  89 CALM      29.90
MEXICALI       CLEAR     72  59  64 SE5       29.88
TIJUANA        CLOUDY    66  59  77 CALM      29.99R

NORTHWESTERN MEXICO

CITY           SKY/WX    TMP DP  RH WIND       PRES   REMARKS
CULIACAN       MOSUNNY   84  75  74 NE6       29.91  HX  92
DURANGO        PTSUNNY   61  59  94 CALM      30.30
GUAYMAS        CLOUDY    84  79  84 CALM      29.86  HX  96
HERMOSILLO     MOCLDY    82  77  83 CALM      29.95  HX  91
CD. JUAREZ     CLOUDY    72  61  68 NE12      30.16
OBREGON        PTSUNNY   81  75  83 CALM      29.89

NORTHEASTERN MEXICO

CITY           SKY/WX    TMP DP  RH WIND       PRES   REMARKS
CHIHUAHUA      PTSUNNY   66  66 100 N3        30.26R
MATAMOROS      PTSUNNY   77  77 100 CALM      30.02
MONCLOVA       CLOUDY    73  70  88 N8        30.12R FOG
NUEVO LAREDO   PTSUNNY   75  70  83 CALM      30.10
PIEDRAS NEGRAS MOSUNNY   77  66  69 SE7       30.14R
REYNOSA        PTSUNNY   75  72  88 N6        30.03
SALTILLO       CLOUDY    64  64 100 N13       30.25S FOG
TORREON        PTSUNNY   72  63  73 CALM      30.17R
CD. VICTORIA   PTSUNNY   75  75 100 N6        30.04

WESTERN MEXICO

CITY           SKY/WX    TMP DP  RH WIND       PRES   REMARKS
AGUASCALIENTES PTSUNNY   63  57  82 NE7       30.29
COLIMA         PTSUNNY   72  68  88 CALM      30.03R
DEL BAJIO      PTSUNNY   63  59  88 CALM      30.30R
GUADALAJARA    PTSUNNY   66  61  82 CALM      30.20
MANZANILLO     MOSUNNY   77  68  73 N6        29.87R
MAZATLAN       MOSUNNY   73  72  94 N7        29.89R
P. VALLARTA    CLOUDY    77  72  83 CALM      29.90S
URUAPAN        CLOUDY    63  61  94 CALM      30.20R
ZACATECAS      PTSUNNY   61  54  77 E6        30.34R

CENTRAL MEXICO

CITY           SKY/WX    TMP DP  RH WIND       PRES   REMARKS
CUERNAVACA     PTSUNNY   68  66  94 CALM      30.15S FOG
MEXICO CITY    PTSUNNY   61  54  77 N6        30.35R
MORELIA        MOSUNNY   64  61  88 CALM      30.25
POZA RICA      PTSUNNY   77  75  94 NW7       30.00R FOG
PUEBLA         MOSUNNY   66  63  88 N7        30.36R
QUERETARO      MOSUNNY   63  59  88 E5        30.33R
S. LUIS POTOSI CLOUDY    61  59  94 NE6       30.29R
TAMPICO        PTSUNNY   79  75  89 W7        29.97S
TOLUCA         CLOUDY    54  46  76 CALM      30.41R FOG

SOUTHERN MEXICO

CITY           SKY/WX    TMP DP  RH WIND       PRES   REMARKS
ACAPULCO       MOSUNNY   81  75  83 N3        29.89R
B. DE HUATULCO CLOUDY    77  72  83 E10       29.95
OAXACA         PTSUNNY   64  57  77 N6        30.23R
P. ESCONDIDO   MOSUNNY   77  73  88 E9        30.03R
VERACRUZ       MOSUNNY   79  73  83 N3        29.92R
ZIHUATANEJO    PTSUNNY   77  75  94 CALM      29.88S

YUCATAN PENINSULA

CITY           SKY/WX    TMP DP  RH WIND       PRES   REMARKS
CAMPECHE       CLOUDY    77  75  94 N5        29.94R
CANCUN         PTSUNNY   84  77  79 SE8       29.97S HX  94
CHETUMAL       PTSUNNY   81  79  94 CALM      29.93R
CD. DEL CARMEN MOSUNNY   82  73  74 E7        29.92
COZUMEL        PTSUNNY   81  79  94 SE8       29.92F
MERIDA         MOSUNNY   79  73  83 E5        29.97R
MINATITLAN     PTSUNNY   77  70  78 SW12      29.91
TAPACHULA      CLOUDY    77  75  94 CALM      29.95S
TUX. GUTIERREZ PTSUNNY   73  70  88 N2        30.02R
VILLAHERMOSA   CLOUDY    75  73  94 CALM      29.96R FOG

CENTRAL AMERICA

CITY           SKY/WX    TMP DP  RH WIND       PRES   REMARKS
BELIZE CITY    PTSUNNY   82  79  89 NW5       29.94R HX  93
MANAGUA        MOSUNNY   81  75  83 CALM      29.89S

CARIBBEAN

CITY           SKY/WX    TMP DP  RH WIND       PRES   REMARKS
ARUBA          MOSUNNY   90  77  66 E16       29.89S HX 102
KINGSTON       MOSUNNY   84  75  74 SE6       29.97  HX  92
SAN JUAN       MOSUNNY   88  79  74 NE14      29.99S HX 102
SANTO DOMINGO  MOSUNNY   86  77  74 NE12      30.00R HX  97
ST. CROIX      MOSUNNY   88  75  66 NE13      29.98R HX  97
ST. MAARTEN    LGT RAIN  84  75  74 E12       29.97S HX  92

$$



USA.gov is the U.S. government's official web portal to all federal, state and local government web resources and services.